N2145M KBED-KPVC

Flight info

Callsign N2145M
Flight time 0h 40m
Altitude 4000
Route DCT
Aircraft P28R/L-VGD/C

Departure

Time 2026-04-22 00:59
Airport Laurence G Hanscom Field (KBED)

Arrival

Time 2026-04-22 01:39
Airport Provincetown Municipal Airport (KPVC)
Time Latitude Longitude Altitude Speed Heading
2026-04-22 00:42 42.46639 -71.28240 119 ft 0 kts 11°
2026-04-22 00:48 42.46640 -71.28239 119 ft 0 kts 11°
2026-04-22 00:51 42.46641 -71.28239 119 ft 0 kts 11°
2026-04-22 00:53 42.46663 -71.28226 119 ft 7 kts
2026-04-22 00:53 42.46711 -71.28194 119 ft 10 kts 26°
2026-04-22 00:53 42.46792 -71.28209 119 ft 15 kts 288°
2026-04-22 00:53 42.46808 -71.28368 119 ft 19 kts 277°
2026-04-22 00:54 42.46826 -71.28558 119 ft 20 kts 278°
2026-04-22 00:54 42.46846 -71.28766 121 ft 21 kts 277°
2026-04-22 00:54 42.46865 -71.28967 123 ft 22 kts 277°
2026-04-22 00:54 42.46884 -71.29182 123 ft 23 kts 277°
2026-04-22 00:55 42.46904 -71.29404 123 ft 24 kts 277°
2026-04-22 00:55 42.46926 -71.29629 123 ft 24 kts 277°
2026-04-22 00:55 42.46961 -71.29998 129 ft 12 kts 287°
2026-04-22 00:56 42.47031 -71.30030 129 ft 13 kts
2026-04-22 00:56 42.47104 -71.30016 128 ft 0 kts 11°
2026-04-22 00:56 42.47111 -71.30016 128 ft 0 kts
2026-04-22 00:57 42.47132 -71.30013 127 ft 12 kts
2026-04-22 00:57 42.47171 -71.29909 124 ft 9 kts 96°
2026-04-22 00:57 42.47171 -71.29906 124 ft 0 kts 96°
2026-04-22 00:58 42.47171 -71.29905 124 ft 0 kts 96°
2026-04-22 00:58 42.47138 -71.29549 123 ft 68 kts 98°
2026-04-22 00:58 42.47093 -71.28863 356 ft 70 kts 97°
2026-04-22 00:58 42.47065 -71.28153 607 ft 84 kts 86°
2026-04-22 00:59 42.47308 -71.27392 907 ft 92 kts 75°
2026-04-22 00:59 42.47528 -71.26569 1256 ft 91 kts 77°
2026-04-22 00:59 42.47750 -71.25771 1602 ft 90 kts 79°
2026-04-22 00:59 42.47957 -71.24968 1933 ft 91 kts 72°
2026-04-22 01:00 42.48211 -71.24204 2228 ft 97 kts 76°
2026-04-22 01:00 42.48460 -71.23424 2650 ft 85 kts 71°
2026-04-22 01:00 42.48695 -71.22601 2853 ft 99 kts 69°
2026-04-22 01:00 42.48927 -71.21719 3006 ft 113 kts 79°
2026-04-22 01:01 42.49127 -71.20700 3104 ft 111 kts 76°
2026-04-22 01:01 42.49372 -71.19674 3093 ft 120 kts 78°
2026-04-22 01:01 42.49605 -71.18531 3043 ft 127 kts 77°
2026-04-22 01:01 42.49954 -71.17400 3038 ft 130 kts 71°
2026-04-22 01:02 42.50274 -71.16268 3043 ft 129 kts 75°
2026-04-22 01:02 42.50571 -71.15115 3020 ft 130 kts 76°
2026-04-22 01:02 42.50839 -71.13930 2981 ft 133 kts 77°
2026-04-22 01:02 42.51129 -71.12755 2997 ft 129 kts 77°
2026-04-22 01:03 42.51362 -71.11573 2992 ft 129 kts 81°
2026-04-22 01:03 42.51574 -71.10402 2983 ft 128 kts 84°
2026-04-22 01:03 42.51830 -71.09228 2994 ft 130 kts 75°
2026-04-22 01:03 42.52098 -71.08052 2992 ft 131 kts 78°
2026-04-22 01:04 42.52350 -71.06853 3019 ft 130 kts 77°
2026-04-22 01:04 42.52607 -71.05682 3042 ft 130 kts 76°
2026-04-22 01:04 42.52906 -71.04514 3067 ft 131 kts 73°
2026-04-22 01:04 42.53169 -71.03352 3101 ft 128 kts 87°
2026-04-22 01:05 42.53052 -71.02155 3092 ft 125 kts 108°
2026-04-22 01:05 42.52869 -71.01027 3090 ft 128 kts 108°
2026-04-22 01:05 42.52666 -70.99859 3166 ft 122 kts 108°
2026-04-22 01:05 42.52469 -70.98718 3089 ft 131 kts 108°
2026-04-22 01:06 42.52276 -70.97542 3220 ft 120 kts 109°
2026-04-22 01:06 42.51985 -70.96433 3091 ft 131 kts 116°
2026-04-22 01:06 42.51659 -70.95263 3023 ft 131 kts 115°
2026-04-22 01:06 42.51325 -70.94120 2996 ft 129 kts 119°
2026-04-22 01:07 42.50923 -70.93053 2995 ft 125 kts 125°
2026-04-22 01:07 42.50600 -70.91941 2992 ft 125 kts 115°
2026-04-22 01:07 42.50340 -70.90810 2977 ft 127 kts 110°
2026-04-22 01:07 42.50046 -70.89696 3023 ft 122 kts 117°
2026-04-22 01:08 42.49754 -70.88628 3040 ft 123 kts 115°
2026-04-22 01:08 42.49471 -70.87534 3046 ft 124 kts 117°
2026-04-22 01:08 42.49137 -70.86443 3044 ft 124 kts 117°
2026-04-22 01:08 42.48831 -70.85326 3064 ft 124 kts 114°
2026-04-22 01:09 42.48553 -70.84219 3026 ft 127 kts 115°
2026-04-22 01:09 42.48252 -70.83104 3069 ft 125 kts 112°
2026-04-22 01:09 42.47965 -70.81988 3045 ft 126 kts 116°
2026-04-22 01:09 42.47656 -70.80840 2970 ft 129 kts 116°
2026-04-22 01:10 42.47335 -70.79723 2992 ft 126 kts 118°
2026-04-22 01:10 42.46980 -70.78635 2981 ft 125 kts 120°
2026-04-22 01:10 42.46601 -70.77583 2993 ft 124 kts 119°
2026-04-22 01:10 42.46287 -70.76481 2991 ft 125 kts 114°
2026-04-22 01:11 42.45980 -70.75377 2984 ft 125 kts 115°
2026-04-22 01:11 42.45690 -70.74271 2972 ft 127 kts 113°
2026-04-22 01:11 42.45383 -70.73155 2984 ft 124 kts 116°
2026-04-22 01:11 42.45026 -70.72115 2968 ft 123 kts 131°
2026-04-22 01:12 42.44527 -70.71197 3048 ft 116 kts 132°
2026-04-22 01:12 42.43984 -70.70322 2985 ft 120 kts 133°
2026-04-22 01:12 42.43507 -70.69418 3053 ft 119 kts 129°
2026-04-22 01:12 42.43090 -70.68427 3052 ft 122 kts 125°
2026-04-22 01:13 42.42714 -70.67387 3050 ft 124 kts 121°
2026-04-22 01:13 42.42345 -70.66320 3057 ft 129 kts 120°
2026-04-22 01:13 42.41948 -70.65215 3057 ft 130 kts 121°
2026-04-22 01:13 42.41552 -70.64123 3063 ft 130 kts 121°
2026-04-22 01:14 42.41154 -70.63022 3058 ft 130 kts 121°
2026-04-22 01:14 42.40750 -70.61920 3059 ft 130 kts 120°
2026-04-22 01:14 42.40349 -70.60819 3055 ft 130 kts 120°
2026-04-22 01:14 42.39956 -70.59716 3056 ft 130 kts 120°
2026-04-22 01:15 42.39556 -70.58618 3051 ft 130 kts 120°
2026-04-22 01:15 42.39160 -70.57525 3054 ft 130 kts 120°
2026-04-22 01:15 42.38759 -70.56419 3051 ft 130 kts 121°
2026-04-22 01:15 42.38335 -70.55348 3053 ft 128 kts 124°
2026-04-22 01:16 42.37845 -70.54342 3056 ft 128 kts 126°
2026-04-22 01:16 42.37369 -70.53322 3056 ft 128 kts 126°
2026-04-22 01:16 42.36881 -70.52298 3057 ft 128 kts 126°
2026-04-22 01:16 42.36409 -70.51281 3057 ft 129 kts 125°
2026-04-22 01:17 42.35939 -70.50252 3059 ft 129 kts 125°
2026-04-22 01:17 42.35468 -70.49205 3059 ft 129 kts 125°
2026-04-22 01:17 42.35000 -70.48165 3057 ft 129 kts 126°
2026-04-22 01:17 42.34544 -70.47137 3057 ft 128 kts 124°
2026-04-22 01:18 42.34084 -70.46089 3056 ft 128 kts 124°
2026-04-22 01:18 42.33643 -70.45050 3055 ft 128 kts 124°
2026-04-22 01:18 42.33190 -70.43994 3058 ft 129 kts 124°
2026-04-22 01:18 42.32737 -70.42950 3056 ft 129 kts 123°
2026-04-22 01:19 42.32283 -70.41902 3058 ft 129 kts 124°
2026-04-22 01:19 42.31826 -70.40855 3059 ft 129 kts 124°
2026-04-22 01:19 42.31376 -70.39812 3062 ft 129 kts 123°
2026-04-22 01:19 42.30923 -70.38757 3062 ft 129 kts 123°
2026-04-22 01:20 42.30478 -70.37711 3065 ft 129 kts 124°
2026-04-22 01:20 42.30030 -70.36639 3067 ft 129 kts 123°
2026-04-22 01:20 42.29584 -70.35590 3068 ft 129 kts 123°
2026-04-22 01:20 42.29136 -70.34525 3070 ft 129 kts 123°
2026-04-22 01:21 42.28688 -70.33477 3071 ft 129 kts 123°
2026-04-22 01:21 42.28246 -70.32427 3071 ft 129 kts 123°
2026-04-22 01:21 42.27805 -70.31374 3075 ft 128 kts 123°
2026-04-22 01:21 42.27414 -70.30278 3078 ft 130 kts 107°
2026-04-22 01:22 42.27149 -70.29118 3074 ft 130 kts 112°
2026-04-22 01:22 42.26815 -70.27987 3071 ft 128 kts 122°
2026-04-22 01:22 42.26404 -70.26917 3072 ft 128 kts 123°
2026-04-22 01:22 42.25978 -70.25859 3074 ft 128 kts 123°
2026-04-22 01:23 42.25538 -70.24806 3074 ft 129 kts 123°
2026-04-22 01:23 42.25097 -70.23755 3074 ft 129 kts 122°
2026-04-22 01:23 42.24675 -70.22685 3073 ft 130 kts 115°
2026-04-22 01:23 42.24242 -70.21634 3069 ft 129 kts 125°
2026-04-22 01:24 42.23783 -70.20583 3070 ft 129 kts 124°
2026-04-22 01:24 42.23335 -70.19541 3070 ft 129 kts 123°
2026-04-22 01:24 42.22884 -70.18488 3069 ft 129 kts 122°
2026-04-22 01:24 42.22376 -70.17490 3069 ft 128 kts 132°
2026-04-22 01:25 42.22055 -70.16374 3065 ft 129 kts 114°
2026-04-22 01:25 42.21508 -70.15419 3071 ft 127 kts 130°
2026-04-22 01:25 42.20990 -70.14456 3071 ft 128 kts 128°
2026-04-22 01:25 42.20495 -70.13448 3072 ft 128 kts 125°
2026-04-22 01:26 42.20028 -70.12423 3072 ft 129 kts 123°
2026-04-22 01:26 42.19583 -70.11376 3073 ft 129 kts 125°
2026-04-22 01:26 42.19130 -70.10321 3074 ft 129 kts 124°
2026-04-22 01:26 42.18680 -70.09281 3073 ft 129 kts 123°
2026-04-22 01:27 42.18229 -70.08222 3072 ft 129 kts 121°
2026-04-22 01:27 42.17879 -70.07099 3067 ft 128 kts 127°
2026-04-22 01:27 42.17392 -70.06090 3073 ft 128 kts 125°
2026-04-22 01:27 42.16924 -70.05080 3074 ft 129 kts 123°
2026-04-22 01:28 42.16463 -70.04042 3076 ft 129 kts 122°
2026-04-22 01:28 42.16029 -70.02972 3076 ft 129 kts 114°
2026-04-22 01:28 42.15644 -70.01890 3071 ft 130 kts 110°
2026-04-22 01:28 42.15387 -70.00738 3064 ft 127 kts 129°
2026-04-22 01:29 42.14926 -69.99764 3082 ft 129 kts 104°
2026-04-22 01:29 42.15107 -69.98579 3090 ft 132 kts 57°
2026-04-22 01:29 42.15806 -69.97783 3090 ft 134 kts 34°
2026-04-22 01:29 42.16612 -69.97082 3069 ft 133 kts 30°
2026-04-22 01:30 42.17418 -69.96445 3015 ft 138 kts 28°
2026-04-22 01:30 42.18227 -69.95814 3073 ft 133 kts 30°
2026-04-22 01:30 42.19050 -69.95230 3090 ft 130 kts 12°
2026-04-22 01:30 42.19876 -69.95544 3078 ft 125 kts 309°
2026-04-22 01:31 42.19991 -69.96634 3007 ft 125 kts 246°
2026-04-22 01:31 42.19323 -69.97260 3069 ft 120 kts 197°
2026-04-22 01:31 42.18519 -69.97582 3034 ft 122 kts 206°
2026-04-22 01:31 42.17941 -69.98370 3054 ft 120 kts 237°
2026-04-22 01:32 42.17478 -69.99326 3019 ft 122 kts 232°
2026-04-22 01:32 42.16960 -70.00246 2974 ft 123 kts 236°
2026-04-22 01:32 42.16513 -70.01221 2995 ft 120 kts 238°
2026-04-22 01:32 42.16085 -70.02178 3003 ft 120 kts 236°
2026-04-22 01:33 42.15652 -70.03123 3012 ft 118 kts 245°
2026-04-22 01:33 42.15226 -70.04039 2941 ft 115 kts 232°
2026-04-22 01:33 42.14773 -70.04907 2755 ft 113 kts 234°
2026-04-22 01:33 42.14330 -70.05810 2561 ft 113 kts 236°
2026-04-22 01:34 42.13928 -70.06670 2389 ft 116 kts 235°
2026-04-22 01:34 42.13499 -70.07615 2339 ft 108 kts 236°
2026-04-22 01:34 42.13099 -70.08502 2111 ft 115 kts 237°
2026-04-22 01:34 42.12734 -70.09470 1902 ft 118 kts 250°
2026-04-22 01:35 42.12350 -70.10437 1865 ft 113 kts 229°
2026-04-22 01:35 42.12074 -70.11453 1708 ft 120 kts 248°
2026-04-22 01:35 42.11665 -70.12353 1725 ft 108 kts 227°
2026-04-22 01:35 42.11182 -70.13154 1557 ft 113 kts 227°
2026-04-22 01:36 42.10822 -70.13961 1300 ft 97 kts 242°
2026-04-22 01:36 42.10486 -70.14716 1110 ft 91 kts 227°
2026-04-22 01:36 42.10138 -70.15428 945 ft 90 kts 231°
2026-04-22 01:36 42.09833 -70.16156 829 ft 87 kts 237°
2026-04-22 01:37 42.09551 -70.16834 801 ft 81 kts 233°
2026-04-22 01:37 42.09267 -70.17510 727 ft 83 kts 233°
2026-04-22 01:37 42.08944 -70.18192 615 ft 84 kts 231°
2026-04-22 01:37 42.08638 -70.18885 491 ft 87 kts 234°
2026-04-22 01:38 42.08351 -70.19553 467 ft 77 kts 234°
2026-04-22 01:38 42.08083 -70.20135 300 ft 71 kts 234°
2026-04-22 01:38 42.07849 -70.20668 169 ft 59 kts 238°
2026-04-22 01:38 42.07660 -70.21105 97 ft 51 kts 234°
2026-04-22 01:39 42.07473 -70.21513 35 ft 58 kts 238°
2026-04-22 01:39 42.07317 -70.21872 10 ft 31 kts 241°
2026-04-22 01:39 42.07204 -70.22128 10 ft 27 kts 240°
2026-04-22 01:39 42.07144 -70.22308 8 ft 17 kts 268°
2026-04-22 01:40 42.07211 -70.22420 7 ft 15 kts
2026-04-22 01:40 42.07278 -70.22323 7 ft 13 kts 58°
2026-04-22 01:40 42.07294 -70.22290 7 ft 0 kts 56°